Find NATO IIA

NORAD ID: 4353 Int'l Des: 1970-021 Owner: NATO Country: I-NATO operational
HEOCIRCULARGSO

Current View

Loading 3D Globe...

About NATO IIA

NATO IIA (NORAD 4353) is a satellite by NATO of I-NATO. It operates in HEO, CIRCULAR, GSO orbit

Upcoming Passes

Passes for default location (London). Set your location on the main map for personalized predictions.

Altitude History

Loading altitude history...

Two-Line Element Set

1 04353U 70021A 26195.56823328 -.00000107 00000-0 00000-0 0 9994
2 04353 0.3942 317.3686 0002378 258.8258 177.2056 1.00280942126044
Epoch: Jul 14, 2026 • Age: 8 hours

Current Status

Altitude 35778.8 km
Apogee / Perigee N/A
Velocity 3.08 km/s
Sub-Earth Point -0.09°S, 103.6°W
Type other

Most Searched